ANZ325 NZHN-NZCH

Flight info

Callsign ANZ325
Flight time 1h 4m
Altitude 36000
Route DADUK H479 NP H252 NS Y288 IPRAK
Aircraft A320/M-SDE1E2E3GIRW/LB1

Departure

Time 2026-04-24 22:13
Airport Hamilton International Airport (NZHN)

Arrival

Time 2026-04-24 23:17
Airport Christchurch International Airport (NZCH)
Time Latitude Longitude Altitude Speed Heading
2026-04-24 21:43 -37.86563 175.33570 162 ft 0 kts 179°
2026-04-24 22:07 -37.86567 175.33569 165 ft 1 kts 187°
2026-04-24 22:07 -37.86579 175.33556 159 ft 3 kts 227°
2026-04-24 22:08 -37.86580 175.33521 159 ft 5 kts 281°
2026-04-24 22:08 -37.86567 175.33462 160 ft 8 kts 285°
2026-04-24 22:08 -37.86550 175.33389 161 ft 8 kts 285°
2026-04-24 22:08 -37.86548 175.33376 162 ft 0 kts 286°
2026-04-24 22:09 -37.86547 175.33371 162 ft 3 kts 286°
2026-04-24 22:09 -37.86537 175.33329 165 ft 5 kts 286°
2026-04-24 22:09 -37.86522 175.33289 166 ft 6 kts 314°
2026-04-24 22:09 -37.86467 175.33296 167 ft 11 kts 17°
2026-04-24 22:10 -37.86373 175.33332 167 ft 17 kts 16°
2026-04-24 22:10 -37.86245 175.33378 167 ft 21 kts 16°
2026-04-24 22:10 -37.86099 175.33430 166 ft 23 kts 15°
2026-04-24 22:10 -37.85931 175.33489 164 ft 26 kts 16°
2026-04-24 22:11 -37.85748 175.33557 163 ft 28 kts 15°
2026-04-24 22:11 -37.85633 175.33613 162 ft 12 kts 30°
2026-04-24 22:11 -37.85581 175.33639 163 ft 3 kts 348°
2026-04-24 22:11 -37.85583 175.33618 162 ft 2 kts 227°
2026-04-24 22:12 -37.85593 175.33615 162 ft 0 kts 199°
2026-04-24 22:12 -37.85640 175.33595 162 ft 34 kts 198°
2026-04-24 22:12 -37.86121 175.33422 166 ft 103 kts 196°
2026-04-24 22:12 -37.86969 175.33116 230 ft 143 kts 195°
2026-04-24 22:13 -37.87904 175.32742 811 ft 141 kts 206°
2026-04-24 22:13 -37.88742 175.32099 1400 ft 141 kts 212°
2026-04-24 22:13 -37.89617 175.31406 1718 ft 159 kts 212°
2026-04-24 22:13 -37.90624 175.30609 1933 ft 183 kts 212°
2026-04-24 22:14 -37.91778 175.29707 2217 ft 207 kts 212°
2026-04-24 22:14 -37.93085 175.28697 2588 ft 232 kts 211°
2026-04-24 22:14 -37.94532 175.27581 3135 ft 252 kts 211°
2026-04-24 22:14 -37.96052 175.26413 3993 ft 259 kts 211°
2026-04-24 22:15 -37.97607 175.25221 4914 ft 265 kts 210°
2026-04-24 22:15 -37.98659 175.24395 5517 ft 268 kts 214°
2026-04-24 22:15 -38.00116 175.22881 6451 ft 272 kts 220°
2026-04-24 22:15 -38.01534 175.21273 7346 ft 275 kts 221°
2026-04-24 22:16 -38.02951 175.19621 8218 ft 278 kts 221°
2026-04-24 22:16 -38.04379 175.17943 9087 ft 282 kts 221°
2026-04-24 22:16 -38.05829 175.16244 9943 ft 285 kts 221°
2026-04-24 22:16 -38.07328 175.14499 10409 ft 304 kts 221°
2026-04-24 22:17 -38.08949 175.12623 10646 ft 327 kts 220°
2026-04-24 22:17 -38.10671 175.10633 11035 ft 341 kts 221°
2026-04-24 22:17 -38.12438 175.08591 11686 ft 346 kts 220°
2026-04-24 22:17 -38.14233 175.06519 12397 ft 350 kts 220°
2026-04-24 22:18 -38.16044 175.04430 13085 ft 354 kts 220°
2026-04-24 22:18 -38.17873 175.02311 13770 ft 358 kts 220°
2026-04-24 22:18 -38.19722 175.00168 14434 ft 361 kts 220°
2026-04-24 22:18 -38.21585 174.98005 15045 ft 365 kts 220°
2026-04-24 22:19 -38.23484 174.95844 15630 ft 368 kts 218°
2026-04-24 22:19 -38.25467 174.93773 16217 ft 371 kts 216°
2026-04-24 22:19 -38.27513 174.91755 16793 ft 374 kts 215°
2026-04-24 22:19 -38.29594 174.89752 17367 ft 377 kts 214°
2026-04-24 22:20 -38.31699 174.87730 17957 ft 381 kts 214°
2026-04-24 22:20 -38.33813 174.85679 18543 ft 384 kts 215°
2026-04-24 22:20 -38.35943 174.83596 19071 ft 388 kts 215°
2026-04-24 22:20 -38.38085 174.81479 19608 ft 391 kts 215°
2026-04-24 22:21 -38.40236 174.79336 20136 ft 394 kts 215°
2026-04-24 22:21 -38.42400 174.77173 20679 ft 397 kts 215°
2026-04-24 22:21 -38.44580 174.74989 21195 ft 400 kts 215°
2026-04-24 22:21 -38.46777 174.72788 21660 ft 403 kts 215°
2026-04-24 22:22 -38.48991 174.70574 22140 ft 406 kts 215°
2026-04-24 22:22 -38.51219 174.68349 22608 ft 408 kts 214°
2026-04-24 22:22 -38.53466 174.66106 23082 ft 411 kts 214°
2026-04-24 22:22 -38.55726 174.63846 23545 ft 414 kts 214°
2026-04-24 22:23 -38.57997 174.61568 23982 ft 417 kts 214°
2026-04-24 22:23 -38.60285 174.59270 24372 ft 419 kts 214°
2026-04-24 22:23 -38.62582 174.56962 24763 ft 422 kts 214°
2026-04-24 22:23 -38.64894 174.54637 25153 ft 424 kts 214°
2026-04-24 22:24 -38.67220 174.52298 25535 ft 426 kts 214°
2026-04-24 22:24 -38.69552 174.49955 25912 ft 428 kts 214°
2026-04-24 22:24 -38.71900 174.47595 26278 ft 430 kts 214°
2026-04-24 22:24 -38.74260 174.45219 26659 ft 432 kts 214°
2026-04-24 22:25 -38.76628 174.42833 27024 ft 434 kts 214°
2026-04-24 22:25 -38.79007 174.40431 27413 ft 436 kts 214°
2026-04-24 22:25 -38.81398 174.38015 27786 ft 438 kts 214°
2026-04-24 22:25 -38.83798 174.35591 28169 ft 441 kts 214°
2026-04-24 22:26 -38.86209 174.33150 28530 ft 443 kts 214°
2026-04-24 22:26 -38.88635 174.30692 28895 ft 445 kts 214°
2026-04-24 22:26 -38.91072 174.28218 29245 ft 447 kts 214°
2026-04-24 22:26 -38.93516 174.25734 29589 ft 450 kts 214°
2026-04-24 22:27 -38.95969 174.23239 30071 ft 449 kts 214°
2026-04-24 22:27 -38.98421 174.20776 30567 ft 446 kts 211°
2026-04-24 22:27 -39.01035 174.18692 31040 ft 439 kts 203°
2026-04-24 22:27 -39.03811 174.17130 31505 ft 433 kts 195°
2026-04-24 22:28 -39.06672 174.15956 31946 ft 431 kts 194°
2026-04-24 22:28 -39.09537 174.14801 32397 ft 430 kts 194°
2026-04-24 22:28 -39.12386 174.13648 32841 ft 429 kts 194°
2026-04-24 22:28 -39.15233 174.12488 33287 ft 428 kts 194°
2026-04-24 22:29 -39.20899 174.10167 34188 ft 426 kts 194°
2026-04-24 22:29 -39.23720 174.09011 34646 ft 424 kts 194°
2026-04-24 22:29 -39.26525 174.07862 35032 ft 423 kts 194°
2026-04-24 22:30 -39.29330 174.06711 35378 ft 422 kts 194°
2026-04-24 22:30 -39.32127 174.05563 35708 ft 422 kts 194°
2026-04-24 22:30 -39.34930 174.04409 36053 ft 422 kts 195°
2026-04-24 22:30 -39.37731 174.03255 36292 ft 423 kts 195°
2026-04-24 22:31 -39.43330 174.00944 36337 ft 422 kts 195°
2026-04-24 22:31 -39.48947 173.98626 36339 ft 421 kts 195°
2026-04-24 22:32 -39.54523 173.96329 36336 ft 420 kts 195°
2026-04-24 22:32 -39.60058 173.94038 36337 ft 420 kts 195°
2026-04-24 22:33 -39.65632 173.91722 36332 ft 420 kts 195°
2026-04-24 22:33 -39.71185 173.89408 36337 ft 419 kts 195°
2026-04-24 22:34 -39.76732 173.87105 36334 ft 419 kts 195°
2026-04-24 22:34 -39.82284 173.84803 36331 ft 419 kts 195°
2026-04-24 22:35 -39.87831 173.82497 36330 ft 418 kts 195°
2026-04-24 22:35 -39.93371 173.80180 36331 ft 418 kts 195°
2026-04-24 22:36 -39.98871 173.77868 36331 ft 418 kts 195°
2026-04-24 22:36 -40.04407 173.75546 36331 ft 418 kts 195°
2026-04-24 22:37 -40.09988 173.73206 36327 ft 418 kts 195°
2026-04-24 22:37 -40.15512 173.70883 36328 ft 417 kts 195°
2026-04-24 22:38 -40.21029 173.68558 36329 ft 417 kts 195°
2026-04-24 22:38 -40.26518 173.66237 36329 ft 417 kts 196°
2026-04-24 22:39 -40.32036 173.63901 36328 ft 417 kts 196°
2026-04-24 22:39 -40.37548 173.61564 36329 ft 416 kts 196°
2026-04-24 22:40 -40.43059 173.59227 36325 ft 416 kts 196°
2026-04-24 22:40 -40.48606 173.56867 36326 ft 416 kts 196°
2026-04-24 22:41 -40.54082 173.54547 36325 ft 416 kts 196°
2026-04-24 22:41 -40.59593 173.52194 36340 ft 416 kts 196°
2026-04-24 22:42 -40.65100 173.49835 36320 ft 416 kts 195°
2026-04-24 22:42 -40.70610 173.47475 36329 ft 416 kts 195°
2026-04-24 22:43 -40.76113 173.45121 36324 ft 415 kts 195°
2026-04-24 22:43 -40.81595 173.42759 36331 ft 414 kts 195°
2026-04-24 22:44 -40.87076 173.40398 36319 ft 414 kts 195°
2026-04-24 22:44 -40.92561 173.38044 36319 ft 414 kts 195°
2026-04-24 22:45 -40.98002 173.35694 36326 ft 414 kts 196°
2026-04-24 22:45 -41.03469 173.33331 36327 ft 413 kts 196°
2026-04-24 22:46 -41.08935 173.30960 36320 ft 413 kts 196°
2026-04-24 22:46 -41.14396 173.28587 36331 ft 413 kts 196°
2026-04-24 22:47 -41.19852 173.26214 36324 ft 412 kts 196°
2026-04-24 22:47 -41.25304 173.23848 36324 ft 412 kts 196°
2026-04-24 22:48 -41.30753 173.21472 36314 ft 412 kts 195°
2026-04-24 22:48 -41.36237 173.19271 36316 ft 411 kts 194°
2026-04-24 22:49 -41.41742 173.17225 36308 ft 410 kts 193°
2026-04-24 22:49 -41.47236 173.15180 36307 ft 410 kts 194°
2026-04-24 22:50 -41.52712 173.13083 36306 ft 410 kts 194°
2026-04-24 22:50 -41.58185 173.10959 36305 ft 409 kts 194°
2026-04-24 22:51 -41.63649 173.08845 36300 ft 409 kts 194°
2026-04-24 22:51 -41.69114 173.06728 36300 ft 409 kts 194°
2026-04-24 22:52 -41.74574 173.04610 36292 ft 408 kts 194°
2026-04-24 22:52 -41.80040 173.02499 36301 ft 410 kts 194°
2026-04-24 22:53 -41.85546 173.00356 36022 ft 412 kts 194°
2026-04-24 22:53 -41.88298 172.99280 35766 ft 412 kts 194°
2026-04-24 22:53 -41.91055 172.98203 35512 ft 413 kts 194°
2026-04-24 22:54 -41.93818 172.97125 35263 ft 413 kts 194°
2026-04-24 22:54 -41.96578 172.96049 35017 ft 414 kts 194°
2026-04-24 22:54 -41.99347 172.94970 34776 ft 414 kts 195°
2026-04-24 22:54 -42.02112 172.93890 34535 ft 415 kts 195°
2026-04-24 22:55 -42.04886 172.92805 34263 ft 415 kts 194°
2026-04-24 22:55 -42.07671 172.91717 33420 ft 419 kts 195°
2026-04-24 22:55 -42.10479 172.90618 32620 ft 421 kts 195°
2026-04-24 22:55 -42.13282 172.89520 32120 ft 417 kts 195°
2026-04-24 22:56 -42.16054 172.88431 31594 ft 413 kts 195°
2026-04-24 22:56 -42.18805 172.87348 31076 ft 410 kts 196°
2026-04-24 22:56 -42.21535 172.86270 30554 ft 407 kts 196°
2026-04-24 22:56 -42.24247 172.85200 29986 ft 404 kts 196°
2026-04-24 22:57 -42.26029 172.84498 29638 ft 401 kts 196°
2026-04-24 22:57 -42.28692 172.83448 29122 ft 397 kts 196°
2026-04-24 22:57 -42.31329 172.82407 28609 ft 393 kts 196°
2026-04-24 22:57 -42.34776 172.81043 27940 ft 388 kts 196°
2026-04-24 22:58 -42.37355 172.80021 27430 ft 384 kts 196°
2026-04-24 22:58 -42.39085 172.79336 27103 ft 382 kts 197°
2026-04-24 22:58 -42.41627 172.78330 26609 ft 379 kts 197°
2026-04-24 22:58 -42.44152 172.77330 26133 ft 377 kts 197°
2026-04-24 22:59 -42.46658 172.76338 25654 ft 374 kts 197°
2026-04-24 22:59 -42.49150 172.75352 25202 ft 372 kts 197°
2026-04-24 22:59 -42.54094 172.73388 24313 ft 368 kts 197°
2026-04-24 23:00 -42.56548 172.72409 23870 ft 366 kts 197°
2026-04-24 23:00 -42.58982 172.71439 23402 ft 363 kts 197°
2026-04-24 23:00 -42.61387 172.70481 22999 ft 358 kts 197°
2026-04-24 23:00 -42.63765 172.69535 22574 ft 354 kts 197°
2026-04-24 23:01 -42.66112 172.68601 22153 ft 350 kts 197°
2026-04-24 23:01 -42.68434 172.67674 21739 ft 345 kts 197°
2026-04-24 23:01 -42.70729 172.66755 21309 ft 342 kts 197°
2026-04-24 23:01 -42.73002 172.65843 20891 ft 339 kts 197°
2026-04-24 23:02 -42.75252 172.64937 20457 ft 336 kts 197°
2026-04-24 23:02 -42.77493 172.64036 20020 ft 335 kts 197°
2026-04-24 23:02 -42.79718 172.63138 19578 ft 333 kts 197°
2026-04-24 23:02 -42.81939 172.62238 19129 ft 332 kts 197°
2026-04-24 23:03 -42.84154 172.61343 18682 ft 331 kts 197°
2026-04-24 23:03 -42.86362 172.60453 18165 ft 331 kts 197°
2026-04-24 23:03 -42.88564 172.59563 17686 ft 329 kts 197°
2026-04-24 23:03 -42.90764 172.58672 16999 ft 333 kts 197°
2026-04-24 23:04 -42.92992 172.57770 16440 ft 333 kts 197°
2026-04-24 23:04 -42.95207 172.56871 15960 ft 331 kts 197°
2026-04-24 23:04 -42.97411 172.55975 15483 ft 330 kts 197°
2026-04-24 23:04 -42.99601 172.55081 15013 ft 328 kts 197°
2026-04-24 23:05 -43.01783 172.54189 14525 ft 327 kts 197°
2026-04-24 23:05 -43.03963 172.53296 14035 ft 326 kts 197°
2026-04-24 23:05 -43.06135 172.52407 13519 ft 325 kts 197°
2026-04-24 23:05 -43.08290 172.51527 13036 ft 322 kts 197°
2026-04-24 23:06 -43.10432 172.50653 12561 ft 320 kts 197°
2026-04-24 23:06 -43.12556 172.49784 12080 ft 317 kts 197°
2026-04-24 23:06 -43.14663 172.48917 11612 ft 316 kts 198°
2026-04-24 23:06 -43.16762 172.48052 11149 ft 314 kts 197°
2026-04-24 23:07 -43.18854 172.47192 10679 ft 313 kts 198°
2026-04-24 23:07 -43.20936 172.46341 10342 ft 308 kts 198°
2026-04-24 23:07 -43.22947 172.45519 10217 ft 296 kts 198°
2026-04-24 23:07 -43.24884 172.44724 10096 ft 285 kts 198°
2026-04-24 23:08 -43.26750 172.43956 9954 ft 276 kts 198°
2026-04-24 23:08 -43.28571 172.43207 9658 ft 271 kts 198°
2026-04-24 23:08 -43.30405 172.42451 9282 ft 271 kts 198°
2026-04-24 23:08 -43.32206 172.41708 8842 ft 269 kts 198°
2026-04-24 23:09 -43.34008 172.40963 8310 ft 264 kts 198°
2026-04-24 23:09 -43.35755 172.40240 7840 ft 260 kts 198°
2026-04-24 23:09 -43.37479 172.39528 7395 ft 258 kts 198°
2026-04-24 23:09 -43.39188 172.38821 6951 ft 255 kts 198°
2026-04-24 23:10 -43.40890 172.38151 6495 ft 253 kts 196°
2026-04-24 23:10 -43.42621 172.37566 6033 ft 257 kts 195°
2026-04-24 23:10 -43.44361 172.37014 5581 ft 257 kts 194°
2026-04-24 23:10 -43.46103 172.36470 5135 ft 257 kts 194°
2026-04-24 23:11 -43.47859 172.35916 4659 ft 258 kts 194°
2026-04-24 23:11 -43.49580 172.35369 4496 ft 247 kts 194°
2026-04-24 23:11 -43.51204 172.34851 4427 ft 233 kts 194°
2026-04-24 23:11 -43.52732 172.34363 4354 ft 219 kts 194°
2026-04-24 23:12 -43.54198 172.33951 4263 ft 212 kts 185°
2026-04-24 23:12 -43.55649 172.34202 4136 ft 213 kts 164°
2026-04-24 23:12 -43.56914 172.35249 3919 ft 215 kts 139°
2026-04-24 23:12 -43.57935 172.36756 3670 ft 217 kts 128°
2026-04-24 23:13 -43.58795 172.38449 3463 ft 211 kts 125°
2026-04-24 23:13 -43.59553 172.40083 3344 ft 191 kts 115°
2026-04-24 23:13 -43.59592 172.41750 3227 ft 170 kts 62°
2026-04-24 23:13 -43.58743 172.42656 3084 ft 149 kts 10°
2026-04-24 23:14 -43.57763 172.43033 2735 ft 149 kts 33°
2026-04-24 23:14 -43.56993 172.43999 2355 ft 145 kts 35°
2026-04-24 23:14 -43.56184 172.44836 2051 ft 145 kts 36°
2026-04-24 23:14 -43.55393 172.45694 1820 ft 144 kts 37°
2026-04-24 23:15 -43.54629 172.46576 1509 ft 143 kts 38°
2026-04-24 23:15 -43.53873 172.47454 1293 ft 143 kts 38°
2026-04-24 23:15 -43.53126 172.48346 1115 ft 142 kts 38°
2026-04-24 23:15 -43.52372 172.49208 888 ft 140 kts 38°
2026-04-24 23:16 -43.51625 172.50064 660 ft 140 kts 38°
2026-04-24 23:16 -43.50880 172.50899 475 ft 137 kts 39°
2026-04-24 23:16 -43.50160 172.51747 279 ft 135 kts 40°
2026-04-24 23:16 -43.49434 172.52590 127 ft 132 kts 40°
2026-04-24 23:17 -43.48839 172.53279 114 ft 88 kts 40°
2026-04-24 23:17 -43.48538 172.53630 109 ft 19 kts 41°
2026-04-24 23:17 -43.48485 172.53795 108 ft 11 kts 72°
2026-04-24 23:17 -43.48460 172.53900 104 ft 8 kts 71°
2026-04-24 23:18 -43.48456 172.53922 105 ft 0 kts 86°
2026-04-24 23:30 -43.48456 172.53925 106 ft 2 kts 88°
2026-04-24 23:31 -43.48459 172.53947 107 ft 1 kts 105°
2026-04-24 23:31 -43.48464 172.53962 106 ft 3 kts 114°
2026-04-24 23:31 -43.48489 172.53992 107 ft 6 kts 169°
2026-04-24 23:31 -43.48533 172.53963 109 ft 9 kts 220°
2026-04-24 23:32 -43.48594 172.53893 109 ft 13 kts 220°
2026-04-24 23:32 -43.48668 172.53808 108 ft 15 kts 220°
2026-04-24 23:32 -43.48758 172.53703 109 ft 18 kts 220°
2026-04-24 23:32 -43.48841 172.53605 107 ft 3 kts 218°
2026-04-24 23:33 -43.48858 172.53615 107 ft 4 kts 140°
2026-04-24 23:33 -43.48874 172.53640 108 ft 6 kts 131°
2026-04-24 23:33 -43.48920 172.53716 108 ft 6 kts 131°
2026-04-24 23:33 -43.48924 172.53722 109 ft 0 kts 130°